Flag for Mauritania Weather past 2 weeks in Nouakchott, Mauritania

Now
72 °F

Low level haze.


Feels Like: 72 °F
Forecast: N/A
Wind: 7 mph from Northeast

Location: Nouakchott Airport

Current Time: Jan 28, 2015 at 10:57:54 PM

Latest Report: Jan 28, 2015 at 10:30 PM


Visibility: 3 mi

Pressure: 30.04 "Hg

Humidity: 10%

Dew point: 12 °F

Location of NouakchottLocation

Historic Weather in Nouakchott — Graph

°F

Nouakchott temperature yesterday

Maximum temperature yesterday: 79 °F (at 4:30 PM)
Minimum temperature yesterday: 66 °F (at 7:30 AM)
Average temperature yesterday: 72 °F

Past Weeks' High & Low Weather Summary

 TemperatureHumidityPressure
High91 °F (Jan 16, 3:30 PM)77% (Jan 14, 2:30 AM)30.12 "Hg (Jan 14, 2:30 AM)
Low55 °F (Jan 19, 7:30 AM)5% (Jan 28, 4:30 PM)29.86 "Hg (Jan 25, 4:00 PM)
Average70 °F26%30.00 "Hg
* Reported Jan 13 10:00 PM — Jan 28 10:00 PM, Nouakchott, Weather by CustomWeather, © 2014

Note: Actual official high and low records may vary slightly from our data, if they occured in-between our weather recording intervals... More about our weather records

Advertising

Nouakchott weather history for previous 24 hours

 ConditionsComfort  
Time TempWeatherWind HumidityBarometerVisibility
10:00 PM
Jan 28
73 °FLow level haze.8 mph9%30.04 "Hg3 mi
9:30 PM73 °FLow level haze.9 mph8%30.04 "Hg3 mi
9:00 PM75 °FLow level haze.10 mph8%30.01 "Hg3 mi
8:30 PM75 °FLow level haze.12 mph7%30.01 "Hg3 mi
8:00 PM77 °FLow level haze.12 mph7%29.98 "Hg2 mi
7:30 PM77 °FLow level haze.8 mph7%29.98 "Hg2 mi
7:00 PM79 °FLow level haze.9 mph7%29.98 "Hg2 mi
6:30 PM79 °FLow level haze.9 mph7%29.98 "Hg2 mi
6:00 PM81 °FLow level haze.13 mph6%29.98 "Hg2 mi
5:30 PM81 °FLow level haze.12 mph6%29.95 "Hg2 mi
5:00 PM82 °FLow level haze.15 mph6%29.95 "Hg2 mi
4:30 PM82 °FLow level haze.13 mph5%29.95 "Hg2 mi
4:00 PM82 °FLow level haze.13 mph6%29.98 "Hg2 mi
3:30 PM81 °FLow level haze.14 mph6%29.98 "Hg2 mi
3:00 PM79 °FLow level haze.12 mph6%30.01 "Hg2 mi
2:30 PM79 °FLow level haze.13 mph7%30.01 "Hg2 mi
2:00 PM79 °FLow level haze.12 mph7%30.04 "Hg2 mi
1:30 PM77 °FLow level haze.14 mph7%30.04 "Hg2 mi
1:00 PM77 °FLow level haze.14 mph7%30.04 "Hg2 mi
12:30 PM75 °FLow level haze.16 mph7%30.07 "Hg2 mi
12:00 PM75 °FLow level haze.18 mph7%30.07 "Hg2 mi
11:30 AM75 °FLow level haze.15 mph7%30.07 "Hg2 mi
11:00 AM72 °FLow level haze.15 mph8%30.09 "Hg2 mi
10:30 AM72 °FLow level haze.17 mph8%30.07 "Hg2 mi
10:00 AM70 °FLow level haze.14 mph8%30.07 "Hg2 mi
9:30 AM68 °FLow level haze.14 mph9%30.07 "Hg2 mi
9:00 AM68 °FLow level haze.15 mph9%30.04 "Hg2 mi
8:30 AM68 °FLow level haze.12 mph10%30.07 "Hg2 mi
8:00 AM66 °FLow level haze.12 mph10%30.04 "Hg2 mi
7:30 AM66 °FLow level haze.9 mph11%30.04 "Hg4 mi
7:00 AM66 °FLow level haze.8 mph10%30.04 "Hg2 mi
6:30 AM68 °FLow level haze.14 mph10%30.01 "Hg2 mi
6:00 AM70 °FLow level haze.10 mph9%30.04 "Hg2 mi
5:30 AM70 °FLow level haze.12 mph9%30.04 "Hg2 mi
5:00 AM70 °FLow level haze.9 mph9%30.04 "Hg2 mi
4:30 AM70 °FLow level haze.10 mph9%30.04 "Hg2 mi
4:00 AM70 °FLow level haze.9 mph9%30.04 "Hg2 mi
3:30 AM72 °FLow level haze.10 mph8%30.04 "Hg2 mi
3:00 AM72 °FLow level haze.10 mph9%30.04 "Hg2 mi
2:30 AM72 °FLow level haze.12 mph8%30.04 "Hg2 mi
2:00 AM68 °FLow level haze.7 mph11%30.07 "Hg2 mi
1:30 AM68 °FLow level haze.7 mph11%30.07 "Hg2 mi
1:00 AM70 °FLow level haze.7 mph10%30.07 "Hg2 mi
12:30 AM72 °FLow level haze.8 mph10%30.07 "Hg2 mi
12:00 AM72 °FLow level haze.7 mph10%30.07 "Hg2 mi
11:30 PM
Jan 27
72 °FLow level haze.10 mph9%30.04 "Hg2 mi
11:00 PM72 °FLow level haze.8 mph9%30.07 "Hg2 mi
10:30 PM72 °FLow level haze.9 mph9%30.07 "Hg2 mi
10:00 PM73 °FLow level haze.9 mph9%30.07 "Hg1 mi
Weather by CustomWeather, © 2014

See weather overviewHow to use our weather pages